GEFSMW_500_meanwind_240.txt.gz
Wind_Speed
7 8 8 7 6 6 6 6 6 6 6 5 5 5 5 5 5 5 5 5 5 5 5 5 6 5 5 5 6 6 7 7 8 8 8 8 8 8 9 8 8 8 9
7 8 8 7 7 6 6 6 6 6 6 6 6 6 6 6 5 5 5 5 5 5 5 6 6 6 6 7 7 7 8 7 7 7 8 8 8 8 8 8 8 8 8
8 8 8 8 7 7 7 7 7 7 7 7 7 7 7 6 6 6 6 5 6 6 6 6 6 6 6 7 7 7 8 7 7 7 7 8 8 8 8 8 7 7 7
9 9 8 8 8 7 7 7 7 7 7 7 7 7 7 7 7 7 6 6 6 6 6 6 6 6 6 7 7 7 7 7 7 8 8 8 8 7 7 7 7 7 7
10 9 9 9 8 8 8 8 8 8 8 7 7 7 7 7 7 8 7 7 7 7 7 7 7 7 7 7 7 7 7 7 7 7 8 8 8 8 7 7 7 7 8
10 9 9 9 9 9 9 8 8 8 8 8 7 8 8 8 8 8 8 8 8 8 8 8 8 8 8 8 8 8 8 8 8 8 8 8 8 8 8 8 8 8 8
10 10 10 10 10 10 9 9 9 8 8 8 8 8 9 9 9 8 8 8 8 9 9 9 9 9 9 9 10 10 9 9 9 9 9 9 9 9 9 8 8 9 9
11 11 11 11 10 10 10 10 9 9 9 9 9 9 10 10 10 9 9 9 9 9 9 10 10 10 11 11 11 11 10 10 10 10 10 10 10 10 10 9 9 10 10
13 12 12 11 10 11 11 10 10 10 10 10 10 10 10 11 11 10 10 11 11 11 10 11 11 11 11 12 12 13 12 12 12 12 11 11 11 12 12 11 11 12 12
13 13 12 11 11 11 11 11 11 11 10 11 11 11 12 12 12 12 12 12 12 11 11 11 11 11 12 13 13 13 13 13 13 13 13 13 12 12 13 13 13 13 13
14 13 13 12 12 12 12 12 12 12 11 11 12 12 12 13 13 13 12 12 12 12 12 12 13 13 13 13 13 13 14 14 14 14 14 14 15 15 15 15 15 14 14
15 15 14 14 14 13 13 13 13 12 12 12 12 13 13 13 13 13 12 12 12 12 12 12 13 13 13 12 12 12 13 14 14 14 15 15 15 15 16 16 16 16 16
16 16 16 15 15 15 14 14 14 14 13 13 13 14 14 14 14 13 13 13 13 13 13 13 14 14 14 14 14 14 14 14 15 15 16 16 17 17 17 17 17 18 18
17 17 17 17 16 16 15 15 15 15 15 15 15 15 14 15 15 14 14 14 15 15 15 15 16 15 16 16 16 16 16 16 17 17 17 18 18 19 19 19 19 19 19
18 18 18 17 17 17 17 16 16 16 16 16 16 16 15 16 15 15 16 16 16 17 17 17 17 17 17 18 18 18 18 18 18 19 19 19 20 20 20 20 20 20 20
19 19 19 19 18 18 17 17 16 16 16 17 17 16 16 16 17 17 17 17 17 18 18 18 18 19 18 18 19 19 19 19 19 19 20 20 21 21 21 21 21 22 22
19 20 20 20 20 19 18 17 17 16 16 16 17 17 17 18 18 18 18 18 19 19 19 19 19 19 19 20 20 21 21 20 20 20 21 21 22 22 22 22 22 22 23
20 20 20 20 20 19 19 18 18 18 17 17 17 18 18 19 19 19 19 19 20 20 21 21 20 20 21 21 22 22 22 22 22 23 22 22 23 23 23 23 23 24 24
21 21 22 21 21 20 20 20 19 19 19 19 18 19 19 19 20 20 21 21 21 21 22 22 21 21 22 22 22 23 23 23 23 23 24 24 24 24 24 24 25 25 25
22 22 22 22 21 20 20 20 20 19 20 20 20 20 21 21 21 21 22 22 21 22 23 22 22 23 23 23 23 24 24 24 24 24 24 24 25 25 25 26 26 26 26
22 22 23 22 21 20 20 20 20 20 20 20 21 21 21 22 22 22 22 22 22 23 23 23 23 24 24 24 24 24 25 25 25 25 25 26 26 26 27 28 27 27 27
22 22 22 22 21 21 21 21 21 21 21 21 22 22 22 22 22 22 23 22 23 23 23 23 24 24 25 25 25 25 25 25 25 26 26 27 27 27 28 28 28 28 28
23 23 22 22 21 21 21 21 22 22 22 23 23 23 23 23 23 23 23 23 23 24 24 24 24 25 25 26 26 26 26 26 26 27 27 27 27 28 28 28 28 28 28
24 24 24 23 23 23 23 23 24 24 24 25 25 25 25 25 25 25 25 25 25 25 26 26 26 26 26 27 27 27 27 27 27 27 27 28 28 28 28 29 28 28 28
24 24 25 25 25 25 25 25 25 26 26 26 26 27 26 26 26 26 26 27 27 27 28 28 28 28 28 28 28 28 28 28 28 29 28 29 29 29 28 28 28 29 29
25 25 26 26 25 26 26 26 26 26 26 27 27 28 28 28 27 27 28 28 28 28 29 30 30 30 30 30 30 30 30 30 30 30 29 29 30 30 30 29 29 30 30

GEFSMW_500_meanwind_246.txt.gz
Wind_Speed
5 5 5 6 6 6 6 5 5 4 3 3 4 4 3 3 3 3 3 3 3 3 4 4 4 4 5 5 5 5 6 6 6 5 5 6 6 7 7 7 7 8 8
5 5 5 5 6 6 6 6 5 4 4 4 4 4 4 4 3 3 4 4 3 4 4 4 4 5 5 5 5 5 5 5 5 5 5 5 6 7 7 7 7 7 8
6 6 6 6 6 6 6 6 5 4 4 4 4 4 5 4 3 3 4 4 5 5 5 5 5 5 6 6 6 6 6 6 5 6 6 6 7 7 7 7 6 7 7
6 6 6 7 7 7 7 7 6 5 5 5 5 5 5 5 5 4 4 4 5 5 5 6 6 6 6 7 7 7 7 6 6 7 7 7 7 7 8 7 7 7 7
7 7 7 8 8 7 7 7 7 6 6 6 6 5 5 5 5 5 5 5 5 5 6 6 6 6 6 6 7 7 8 8 8 8 8 7 7 7 7 8 8 8 8
8 8 9 9 9 8 8 8 8 7 7 7 6 6 6 6 6 5 5 6 6 6 6 7 7 7 7 7 8 8 8 9 9 9 8 8 8 8 8 8 8 9 9
8 9 10 10 9 9 9 9 9 8 8 8 7 7 7 7 7 7 6 7 7 7 7 8 8 8 8 9 9 9 10 10 10 10 9 9 10 10 10 9 9 10 10
9 9 9 9 9 9 9 9 9 9 9 9 9 9 9 8 8 8 8 8 8 8 8 8 9 9 9 10 10 10 11 11 11 11 11 10 11 11 11 11 11 11 11
11 10 10 10 10 10 9 10 10 10 10 10 10 10 10 10 10 10 10 10 10 10 10 9 10 11 11 11 11 11 11 11 12 12 12 12 12 12 12 12 13 12 12
11 11 11 11 11 10 10 11 11 11 11 10 10 10 10 11 11 12 12 12 12 12 12 11 11 11 11 11 11 12 12 12 12 13 13 13 13 13 13 13 14 14 13
12 12 12 12 12 12 12 12 12 12 12 12 12 12 12 12 12 12 12 12 12 12 12 12 12 12 11 11 12 12 12 12 13 13 14 15 15 15 15 15 15 15 15
13 13 13 13 13 13 13 13 13 13 13 13 13 13 13 13 13 13 13 13 13 13 13 13 12 13 13 13 14 14 14 14 14 15 15 15 16 17 17 17 16 16 16
14 14 14 14 14 14 14 14 14 14 14 15 15 14 14 14 14 14 14 14 14 14 14 14 14 14 14 15 16 16 16 16 16 16 16 17 17 18 18 18 17 17 17
14 14 14 14 14 14 15 15 15 16 16 16 16 16 15 15 15 15 15 14 14 14 15 15 15 15 16 17 17 18 18 17 17 17 18 18 18 19 19 19 19 18 19
15 15 15 15 16 16 16 16 16 16 16 16 16 16 17 17 17 16 15 15 15 15 16 15 16 16 17 18 18 19 19 18 18 18 19 19 20 20 21 20 20 20 21
16 16 16 16 16 16 17 17 18 17 17 17 17 17 18 18 18 17 16 16 16 16 16 16 17 17 18 18 19 19 19 19 20 20 20 20 21 21 22 22 22 22 22
18 18 17 17 17 17 17 18 18 18 17 17 17 17 18 17 17 17 17 17 17 17 17 17 18 18 19 19 19 20 20 20 20 21 21 21 22 23 22 23 23 23 24
19 18 17 17 17 17 18 18 18 18 17 17 17 17 17 18 17 16 17 17 16 16 17 18 18 19 19 19 20 20 20 21 21 22 22 23 23 23 23 23 24 24 25
19 19 18 19 18 18 19 19 18 18 17 17 18 18 17 17 17 17 17 17 18 18 18 18 19 19 19 20 20 21 21 22 22 23 23 23 23 23 24 24 25 25 25
20 20 20 20 20 20 19 19 18 18 18 17 17 17 17 17 18 18 18 18 19 19 19 20 20 20 21 21 22 22 22 22 23 23 24 24 24 24 24 25 26 26 26
22 21 21 21 20 20 20 20 19 19 19 18 18 18 18 19 19 19 19 20 20 20 20 20 21 21 21 22 22 22 23 22 23 23 24 24 25 25 25 26 26 26 26
22 22 21 21 21 21 21 21 20 20 20 19 19 19 20 20 21 20 20 21 21 21 21 21 22 22 23 23 23 22 23 24 24 24 24 25 26 27 26 27 27 27 27
22 22 22 21 21 22 22 22 22 22 22 21 21 21 21 22 22 22 22 23 23 23 23 23 23 23 24 25 25 26 26 25 25 25 26 26 27 27 28 28 28 28 29
23 23 23 23 23 23 22 22 22 22 22 23 22 23 23 23 23 23 24 24 24 24 25 25 25 25 26 26 27 27 27 27 27 27 28 28 27 28 28 28 28 28 29
24 24 24 24 24 24 23 23 22 22 23 23 23 24 24 24 25 25 25 26 26 26 26 26 27 27 27 28 28 28 29 29 29 30 29 28 28 28 28 28 28 29 30
26 26 25 25 25 24 24 24 23 23 23 24 24 25 25 26 26 26 27 28 28 28 28 28 29 29 29 29 30 30 30 31 31 31 31 30 30 29 29 29 29 30 30

GEFSMW_500_meanwind_252.txt.gz
Wind_Speed
5 5 6 6 6 6 6 6 5 5 4 4 4 4 3 3 3 3 3 4 4 4 4 4 4 5 5 6 6 6 6 6 7 7 8 8 8 9 9 9 9 9 9
7 6 6 6 6 6 6 6 6 5 5 5 5 4 4 4 4 4 5 5 5 5 5 5 5 5 6 6 7 6 6 7 7 7 7 8 8 8 8 9 9 9 9
8 8 7 7 7 7 7 7 7 6 5 6 6 6 5 5 5 5 5 6 6 6 6 6 6 5 6 6 7 7 7 7 7 7 7 7 8 8 9 9 9 10 10
8 8 8 8 8 8 7 7 7 6 6 6 6 6 6 6 6 6 5 6 6 6 6 6 6 6 6 6 7 7 7 8 8 9 9 9 10 10 10 10 10 11 11
9 9 9 9 9 9 8 8 8 8 8 7 7 6 7 7 7 7 6 6 6 7 7 7 7 7 8 8 8 8 8 9 9 10 10 10 10 10 10 10 11 12 12
9 9 9 9 10 9 9 8 8 8 8 8 8 8 8 8 8 8 8 8 8 8 8 8 8 9 9 9 10 10 9 10 10 11 11 11 11 11 11 11 12 12 12
10 10 10 10 10 10 9 9 8 9 8 9 9 9 9 10 10 9 10 9 9 9 9 9 9 10 10 10 11 11 11 11 11 11 12 12 12 12 13 13 14 14 13
11 11 11 11 11 10 10 9 9 9 9 10 10 11 10 11 10 10 11 11 11 11 11 11 11 11 11 11 12 12 12 12 12 13 13 13 13 13 14 14 14 14 14
11 11 11 11 12 11 11 10 10 10 10 10 11 11 11 11 11 11 12 12 12 12 13 13 13 13 13 13 13 13 13 13 14 14 14 15 15 15 15 15 15 15 15
12 12 12 12 12 13 12 11 11 11 12 12 12 12 12 12 12 12 13 13 13 13 14 14 14 14 14 14 14 14 15 14 15 15 16 16 16 17 17 17 16 17 17
13 13 14 14 14 13 13 13 13 13 13 13 13 13 13 13 13 13 14 14 14 15 15 15 15 15 14 14 15 15 15 15 16 16 17 17 18 18 18 18 18 18 18
14 14 14 14 14 14 14 14 14 14 14 14 14 14 15 15 14 14 14 14 15 16 15 15 15 15 15 16 16 16 17 17 17 17 17 18 18 18 18 19 19 19 19
15 16 16 15 15 15 14 14 15 15 15 15 15 15 15 15 15 15 15 15 15 15 15 15 15 16 16 17 17 17 17 18 18 18 18 18 18 18 18 19 19 20 20
16 17 16 15 15 15 15 15 15 15 15 15 15 15 14 15 15 16 16 16 16 16 16 15 15 16 17 17 18 18 19 19 19 19 19 19 19 19 19 19 20 21 21
17 17 16 16 16 15 16 16 15 15 16 16 15 15 16 16 16 16 17 17 17 17 17 17 16 16 17 17 18 19 19 19 20 20 19 19 19 20 21 21 21 21 22
17 17 17 17 17 16 16 16 16 16 16 16 16 16 16 17 17 17 17 17 17 18 18 18 17 17 17 18 19 19 19 19 19 19 20 20 21 21 22 22 23 22 23
17 18 18 18 17 17 17 17 17 17 17 17 17 17 17 18 18 18 18 18 18 18 18 18 18 19 19 18 18 19 19 19 19 20 20 21 22 22 23 23 23 24 24
18 18 18 18 18 18 18 18 19 19 19 18 18 18 18 19 19 19 19 19 19 19 19 19 18 19 19 19 19 19 20 20 20 21 21 22 22 23 23 24 24 24 25
19 19 19 19 19 20 20 20 20 20 20 20 19 19 20 20 19 19 19 19 19 19 20 20 20 20 20 21 21 21 21 21 21 21 22 23 23 24 24 25 26 26 26
20 21 21 21 21 21 22 22 22 21 22 21 21 21 20 20 20 20 20 20 20 20 20 20 20 20 21 21 21 22 21 21 22 23 23 24 24 25 26 26 27 27 27
22 22 22 22 22 23 23 23 23 23 22 22 22 22 22 22 21 21 21 21 21 21 21 21 21 21 21 21 22 22 23 23 23 24 25 25 25 26 26 27 27 28 28
23 23 24 24 24 24 24 24 24 24 23 23 23 23 23 22 22 22 22 22 22 22 22 22 22 22 22 23 24 24 25 25 25 26 26 26 27 27 27 27 27 27 28
25 25 25 25 24 25 25 24 24 24 23 24 24 24 24 24 23 23 23 24 24 24 23 23 23 23 24 24 24 25 26 26 27 27 27 27 28 28 28 28 28 27 28
26 26 25 25 24 25 25 25 24 24 24 25 25 25 25 25 24 24 24 24 25 25 25 24 25 24 24 25 25 26 27 27 28 28 28 28 28 28 29 29 29 29 29
26 26 26 26 25 25 25 25 25 25 25 25 24 25 25 25 25 25 25 25 26 26 26 26 26 26 26 27 28 29 29 29 29 29 29 29 29 29 30 30 31 31 31
26 26 26 26 26 26 26 26 26 26 26 25 25 25 26 26 26 26 26 26 27 27 28 28 29 29 29 29 30 31 31 31 31 31 31 31 31 32 32 32 31 32 32

GEFSMW_500_meanwind_258.txt.gz
Wind_Speed
7 6 7 7 7 7 7 6 6 6 6 6 5 5 5 5 5 5 5 6 6 6 6 6 6 6 7 7 8 8 9 9 9 9 10 10 11 11 10 11 10 11 11
7 8 8 8 8 8 8 7 7 7 7 7 7 6 6 6 5 6 7 6 7 7 7 7 6 7 7 8 8 8 9 10 10 10 10 10 11 11 11 11 11 11 11
8 8 9 9 9 9 8 8 8 8 8 8 8 8 8 7 7 7 7 8 8 8 8 8 8 8 8 8 8 8 9 9 10 10 10 10 10 11 11 12 12 12 12
8 9 9 9 9 9 9 8 8 8 8 8 8 8 8 8 8 8 8 8 9 10 10 10 9 9 9 9 9 9 9 9 10 11 11 11 11 11 12 12 12 13 13
9 9 9 9 9 9 9 9 9 9 9 8 8 8 8 8 9 9 9 9 9 10 11 10 10 10 11 10 10 10 10 11 11 11 11 11 12 12 12 13 12 13 13
9 9 9 9 10 10 10 10 10 9 9 9 9 9 9 9 10 10 10 10 10 10 10 11 11 11 11 11 11 11 12 12 12 12 12 12 13 13 13 14 14 14 14
10 10 10 10 11 11 11 11 11 10 10 10 10 10 10 10 10 10 11 11 11 11 11 11 12 12 12 11 11 12 12 12 13 13 13 14 14 14 14 14 15 15 15
11 11 11 12 12 12 12 12 12 11 11 11 10 10 11 11 11 12 12 12 12 12 12 12 12 12 12 12 12 13 13 13 13 14 14 15 15 15 15 15 16 16 16
12 12 12 13 13 12 12 12 12 12 11 11 12 12 12 12 12 13 13 14 14 14 14 14 14 14 14 13 13 13 13 14 14 15 15 15 16 16 16 17 16 16 16
12 13 13 13 13 13 13 13 12 12 12 13 13 13 13 13 13 13 14 14 14 15 15 15 15 15 14 14 14 14 14 15 16 17 17 17 17 17 18 18 18 18 18
14 14 14 14 14 14 13 13 13 13 13 14 15 15 15 14 14 15 15 15 15 15 16 16 15 15 15 15 14 15 15 15 16 17 17 18 18 18 18 18 19 19 18
14 14 14 14 14 14 13 13 13 13 14 14 14 15 15 15 15 16 16 16 15 15 15 15 15 15 15 15 15 15 16 16 16 16 17 17 18 18 19 19 19 20 20
15 15 15 14 14 15 15 14 14 14 14 14 15 15 15 15 15 16 16 16 16 16 16 15 15 15 15 15 16 17 17 16 16 16 16 17 17 18 19 19 20 20 21
16 16 16 16 15 15 15 15 15 15 15 15 15 16 16 16 16 16 16 16 16 16 16 16 16 16 16 17 17 17 17 16 16 17 17 17 17 18 19 19 20 21 21
16 16 16 16 15 16 16 16 16 16 16 16 16 16 16 16 17 17 16 16 16 16 16 16 17 17 17 18 18 18 17 17 17 17 18 18 18 18 20 20 20 21 22
16 16 16 16 16 16 16 17 16 17 17 17 17 17 17 17 17 17 17 17 16 17 17 17 17 17 18 18 19 19 19 19 19 18 19 19 19 20 21 21 22 23 23
17 17 17 17 18 18 18 18 18 18 18 18 18 18 18 18 18 18 18 17 17 18 18 18 18 18 19 19 20 20 20 20 19 19 20 20 20 21 21 22 23 23 24
18 18 17 17 18 18 19 19 19 19 19 19 19 20 19 19 19 19 19 19 19 19 18 18 19 19 19 20 20 20 19 19 19 19 20 21 21 21 22 22 23 23 24
19 19 19 19 19 20 21 20 20 20 20 21 21 20 20 20 20 20 20 20 20 20 20 19 20 20 21 21 21 21 20 20 20 21 21 21 22 22 23 23 23 24 24
21 21 21 21 21 21 21 21 21 21 21 21 21 21 21 21 21 21 21 21 21 21 21 21 21 22 22 22 22 22 21 21 22 22 23 23 23 24 24 24 25 25 25
21 21 21 22 22 22 22 22 22 22 22 22 22 22 22 22 22 22 22 22 22 23 23 23 23 24 24 24 23 23 23 23 24 24 24 25 25 25 26 26 26 27 27
22 22 22 22 22 22 22 22 22 22 22 22 22 23 23 23 23 23 23 23 23 23 23 24 24 24 24 25 25 24 24 24 25 25 25 26 26 26 27 27 27 27 28
23 23 23 23 23 24 24 23 23 23 23 23 23 23 24 24 24 24 24 25 25 24 24 24 25 25 25 26 26 25 25 26 26 26 26 26 26 27 28 29 29 29 29
25 24 24 24 24 25 25 25 24 24 24 24 24 24 25 25 26 26 26 26 26 26 26 26 26 26 26 27 27 27 27 27 28 28 28 28 28 28 29 29 30 29 30
26 26 25 25 25 25 25 25 25 25 25 25 25 25 25 26 26 26 26 26 26 26 26 26 27 27 27 28 28 29 29 29 29 29 29 29 29 30 31 31 30 30 31
27 27 27 27 27 27 26 26 26 25 25 25 25 25 26 26 26 26 25 25 25 26 26 26 26 27 28 28 29 29 30 30 30 31 30 30 31 31 31 31 31 31 32

GEFSMW_500_meanwind_264.txt.gz
Wind_Speed
8 8 8 8 9 9 9 9 10 10 10 9 9 9 8 9 9 9 9 8 8 8 8 8 8 8 9 9 9 10 10 10 10 10 10 10 10 10 11 11 11 12 12
9 8 8 9 9 9 10 10 10 10 10 10 9 9 9 9 9 9 8 8 8 8 8 9 9 9 9 10 10 10 10 10 11 11 11 11 11 12 12 12 12 12 12
10 9 9 9 9 10 10 11 11 11 10 11 10 9 9 10 10 9 9 8 9 9 9 9 10 10 10 11 12 12 12 11 12 12 12 12 13 13 13 13 13 13 13
10 10 10 10 10 10 11 11 11 11 11 11 10 10 10 11 11 10 10 10 10 10 10 10 10 11 11 12 12 13 13 12 12 13 13 14 14 15 14 14 14 14 14
11 10 10 10 11 11 11 12 12 12 11 11 11 11 11 11 11 11 11 11 10 11 11 11 11 11 11 12 13 13 13 13 13 13 14 15 15 15 15 15 15 15 14
12 12 11 11 11 12 12 12 12 12 12 11 11 11 12 12 12 12 12 12 12 12 12 13 13 12 12 12 12 13 13 14 14 14 15 15 15 15 15 15 15 15 15
13 13 12 12 12 12 12 13 12 12 12 12 12 12 12 12 12 13 13 13 14 14 14 14 14 14 13 13 13 14 14 14 15 15 16 16 16 15 15 16 16 16 16
14 14 13 13 13 13 13 13 13 13 12 12 12 12 12 12 13 13 14 14 14 15 15 15 14 14 14 15 15 15 15 16 16 16 16 16 16 16 16 16 16 17 17
14 14 14 14 13 13 13 13 13 13 13 13 13 13 13 13 13 14 14 14 14 14 15 15 15 15 15 16 16 16 15 15 15 16 16 16 16 17 17 17 17 16 17
15 14 14 14 14 14 14 14 14 13 14 14 14 14 14 14 14 14 14 14 14 14 15 15 17 16 16 16 15 15 14 14 15 15 15 16 17 17 17 17 17 17 18
16 16 14 14 15 15 15 14 14 14 14 14 15 15 15 15 15 15 15 16 16 16 16 17 17 17 16 16 15 15 15 15 15 16 16 16 17 18 18 19 19 19 18
16 16 16 15 15 15 15 15 15 15 15 15 15 16 16 16 16 16 16 17 17 17 17 17 17 17 16 16 15 15 15 16 17 17 17 17 17 17 18 19 19 19 19
17 16 16 16 16 16 16 16 16 16 16 16 16 16 16 17 17 17 17 17 17 18 17 17 17 17 17 16 16 17 16 16 17 17 17 17 18 18 18 18 18 19 20
17 17 17 17 16 16 16 17 17 17 17 17 17 17 17 17 17 17 17 17 18 17 18 18 18 18 18 17 17 18 18 17 17 18 18 18 18 18 19 19 20 20 21
18 18 18 17 17 17 18 18 18 18 18 18 18 18 18 18 18 18 18 18 18 19 19 19 18 18 18 18 18 18 18 18 18 19 19 19 19 19 20 20 21 22 22
19 19 18 18 18 18 18 19 19 19 19 19 19 19 20 20 20 20 19 20 20 20 19 19 19 19 19 19 20 20 19 19 19 20 20 20 20 20 21 21 22 22 23
20 20 20 19 19 19 19 19 19 19 19 19 19 19 19 20 20 20 20 20 20 20 19 20 20 20 20 20 20 20 20 21 21 21 21 21 21 21 21 22 22 22 23
21 21 20 20 20 20 20 20 20 19 20 19 19 19 19 19 20 20 20 21 21 21 20 21 21 21 21 22 21 22 22 22 22 21 21 21 21 22 22 22 23 23 23
22 22 21 21 21 21 21 21 21 21 21 20 20 20 20 20 21 21 21 21 22 22 22 21 22 22 23 23 23 23 24 24 23 22 22 22 22 22 23 24 24 24 24
22 22 22 22 22 22 22 22 22 22 21 20 21 21 21 21 22 22 22 22 22 22 22 22 23 23 24 24 24 25 25 24 24 23 23 23 24 24 24 25 25 26 26
23 23 24 23 23 23 23 23 23 22 22 22 22 22 22 23 23 23 23 23 23 23 23 23 24 24 24 24 24 25 25 24 24 25 25 25 25 26 26 26 26 26 27
25 25 25 25 25 25 25 24 24 24 24 24 23 23 24 24 24 24 24 24 24 25 25 24 25 25 25 25 25 25 26 26 26 26 27 27 27 27 27 27 27 27 27
28 28 28 27 27 27 26 26 25 26 26 25 25 25 25 25 25 25 25 25 25 25 25 25 25 25 25 26 26 26 27 27 27 28 28 28 28 29 29 29 28 28 27
30 30 30 29 29 28 28 28 27 27 27 26 25 25 25 25 25 25 25 26 26 25 25 25 25 26 26 26 26 27 27 28 28 28 29 29 29 30 30 30 29 29 29
32 32 32 31 31 30 30 29 29 28 28 27 27 27 27 27 27 27 27 27 27 27 27 26 26 26 26 27 27 28 28 28 29 29 29 29 29 29 30 30 30 30 30
33 33 33 32 32 31 30 30 30 29 29 29 30 29 29 29 29 28 29 29 29 28 28 27 27 27 28 28 29 29 29 29 30 30 30 30 30 30 30 30 30 31 32

GEFSMW_500_meanwind_270.txt.gz
Wind_Speed
5 4 4 5 5 5 6 6 6 6 6 6 6 6 6 6 6 6 6 6 6 6 7 8 8 8 9 9 9 10 10 10 10 11 11 11 11 12 12 12 12 12 12
5 5 6 5 5 6 6 6 7 7 7 7 6 6 6 6 7 6 6 7 7 7 8 8 8 9 9 9 10 10 10 10 10 10 11 11 12 12 12 12 12 13 13
5 6 6 6 6 6 6 7 7 7 8 8 7 7 7 7 7 7 7 7 8 8 8 8 8 9 9 9 10 10 10 11 11 11 11 11 12 13 13 13 13 14 14
5 6 6 6 6 7 7 8 8 8 8 8 8 8 8 8 8 8 8 8 8 9 9 9 9 10 10 10 11 11 11 11 12 12 12 12 13 13 14 14 14 15 15
6 6 7 7 7 8 8 8 8 9 8 8 9 9 9 9 9 9 9 9 9 9 9 10 10 11 11 12 12 12 12 12 13 13 13 13 14 14 15 15 15 16 16
7 7 8 8 8 8 8 8 9 9 9 9 9 10 10 10 10 10 10 10 10 10 10 10 11 12 12 12 12 12 13 13 14 14 14 14 14 15 15 16 16 16 16
8 8 8 9 9 9 9 10 10 10 10 10 10 10 11 11 11 11 11 11 11 11 12 12 12 12 12 13 13 14 14 15 15 15 16 16 16 16 16 16 16 16 16
8 8 8 9 9 9 10 10 10 10 10 10 10 10 11 11 11 12 12 12 11 11 12 12 13 13 13 14 14 15 15 16 16 16 17 17 17 17 16 16 16 16 16
9 9 9 9 9 9 10 10 10 10 10 10 10 10 11 11 12 12 12 11 11 11 12 12 12 13 14 15 15 15 16 16 16 16 16 17 17 17 17 17 16 16 17
10 10 10 11 10 10 11 11 11 11 11 11 11 11 12 12 12 12 12 12 12 12 13 13 14 15 15 15 15 16 16 16 16 16 15 16 16 16 16 17 17 17 17
11 11 11 11 11 11 11 12 12 12 12 12 12 12 12 13 13 12 12 12 13 13 14 14 15 15 15 15 15 15 15 15 15 16 15 15 15 15 16 16 17 17 18
12 11 11 12 12 12 12 12 13 13 13 13 13 13 13 13 13 13 13 13 14 14 14 14 14 15 15 15 15 15 15 15 15 15 16 15 15 15 15 17 17 17 18
12 13 13 13 13 14 14 14 14 14 14 15 15 15 14 14 14 14 14 14 15 15 15 15 14 14 15 15 16 16 15 15 15 15 16 16 16 16 16 17 17 17 18
14 14 14 15 15 15 15 15 15 15 15 16 15 15 15 15 15 15 15 16 15 16 15 15 15 15 15 15 16 16 16 16 17 17 17 17 17 17 17 18 18 18 19
15 15 15 16 16 16 16 16 16 15 16 16 16 15 15 16 16 16 16 16 16 16 16 16 16 16 16 16 16 16 16 17 18 18 18 19 19 19 19 19 19 19 19
16 15 16 16 16 16 16 17 16 16 17 17 16 16 16 16 16 16 16 16 16 17 17 17 17 16 16 17 17 17 18 18 19 19 19 20 20 19 19 19 20 20 21
17 16 17 17 17 17 17 17 17 17 17 17 17 17 17 17 16 16 16 16 17 17 17 18 17 16 17 18 18 18 19 19 20 20 20 20 20 20 20 20 20 21 21
18 18 18 19 19 18 19 19 19 18 18 18 18 18 18 17 17 17 17 17 17 18 17 17 17 17 18 19 19 19 19 20 20 20 20 21 21 21 21 21 21 22 22
20 20 21 21 21 20 20 20 20 19 19 19 19 19 19 19 18 18 18 18 18 18 18 18 19 19 19 19 20 20 20 20 20 21 21 21 21 22 22 22 22 23 23
22 22 23 23 22 21 21 21 20 20 20 20 20 20 20 19 19 19 19 19 19 19 20 20 20 20 20 20 20 21 21 21 21 22 23 22 22 23 23 23 23 23 24
24 24 24 24 23 23 23 22 22 22 22 22 21 21 21 21 21 21 21 21 21 21 21 21 20 20 21 21 21 22 22 23 23 24 24 24 24 24 25 25 25 25 26
26 25 25 25 25 24 24 24 24 24 24 24 23 23 22 23 23 23 22 22 22 22 22 22 21 22 22 23 23 24 24 24 24 25 25 25 26 25 25 25 26 26 26
27 27 27 27 26 26 25 25 25 25 25 25 25 25 24 24 24 24 24 24 24 24 24 24 24 24 25 25 26 26 25 25 25 25 26 26 27 26 26 26 26 26 26
29 29 29 28 28 28 27 27 27 27 27 26 27 26 26 26 26 26 26 26 26 27 27 26 26 26 26 26 27 27 26 26 27 26 26 27 27 27 27 27 27 28 27
31 31 30 30 30 29 29 29 29 29 28 28 28 28 28 28 28 28 28 28 28 28 28 28 28 27 26 26 27 27 27 27 27 27 27 27 27 28 28 28 28 29 29
32 32 32 32 31 31 30 30 30 30 30 30 30 30 30 30 30 30 30 30 30 30 30 30 29 28 27 27 28 28 28 28 29 29 28 28 29 29 29 29 30 30 30

GEFSMW_500_meanwind_276.txt.gz
Wind_Speed
6 6 6 6 5 5 6 6 6 6 6 5 5 5 6 6 6 6 6 6 6 6 7 8 8 8 9 9 10 11 11 11 11 12 12 12 13 13 14 14 14 14 14
7 6 6 6 6 6 6 6 6 6 6 5 6 6 6 6 7 7 7 7 7 8 8 9 9 8 9 9 10 10 10 11 11 11 12 13 13 14 14 14 15 15 15
6 6 6 7 6 6 6 6 6 6 6 6 6 6 7 7 7 7 8 8 8 9 9 9 9 9 9 9 10 10 10 11 11 11 12 13 14 15 15 15 15 16 16
6 6 7 7 7 7 6 6 7 7 7 7 7 7 7 7 7 8 8 9 9 9 9 10 10 10 10 10 11 11 12 12 13 13 13 14 15 15 15 15 16 16 17
7 7 7 7 7 7 7 8 8 8 8 8 8 8 8 8 9 9 10 9 10 10 10 11 11 11 11 11 12 12 13 13 14 14 14 15 15 15 16 16 17 17 18
8 8 8 8 8 8 8 8 8 8 8 8 9 9 9 9 10 10 10 10 11 11 11 12 12 12 12 13 13 13 14 15 15 16 16 16 16 16 16 16 17 18 18
9 8 8 8 8 8 8 8 9 9 9 9 9 10 10 10 10 11 11 11 12 12 12 12 13 13 13 13 14 14 15 16 16 17 17 17 17 17 17 17 17 18 18
9 9 8 9 9 8 8 9 9 10 10 10 10 10 11 11 11 12 12 12 13 13 13 13 14 13 13 14 14 15 15 16 16 17 17 17 18 18 18 18 18 17 17
10 10 10 10 10 10 9 10 10 10 11 11 11 11 12 12 12 12 13 13 13 14 14 14 14 14 14 15 15 15 15 15 16 16 17 17 17 17 18 18 17 18 18
11 10 11 11 11 11 11 11 11 12 12 12 12 12 12 13 13 13 13 14 14 14 14 14 14 15 15 15 16 16 16 16 17 17 17 17 17 17 18 18 18 18 18
11 11 12 12 12 12 12 13 13 13 13 13 13 13 13 13 13 13 14 14 14 14 14 15 15 16 16 16 16 16 16 16 17 17 17 17 17 17 17 18 18 18 18
12 12 13 13 13 13 13 13 13 14 14 15 15 15 15 15 15 15 15 15 15 15 15 15 15 16 16 16 17 17 17 17 17 17 17 17 17 17 17 18 18 18 19
14 13 13 13 13 13 13 14 14 15 16 16 16 16 16 16 16 16 16 16 17 17 16 16 16 16 17 17 17 17 17 18 18 17 17 17 17 17 18 19 19 19 19
16 15 14 14 14 14 15 15 16 16 17 17 17 17 17 17 17 17 17 17 17 17 17 17 17 17 17 17 17 17 17 17 17 17 17 17 18 18 19 19 19 19 20
16 15 16 16 16 16 16 16 16 17 17 17 17 17 17 17 17 18 18 18 18 18 18 18 18 17 17 17 17 17 17 18 18 18 18 18 19 19 19 19 19 19 20
16 17 17 17 17 17 17 18 18 18 18 17 17 17 17 17 17 18 18 18 18 18 18 18 18 18 18 18 17 17 17 18 18 18 18 18 18 19 19 20 20 20 21
18 19 19 19 19 19 19 19 19 19 18 18 18 18 18 18 19 19 19 19 19 19 18 18 18 18 18 18 18 18 18 18 19 19 19 19 19 20 20 20 21 21 22
20 20 21 21 21 21 21 21 21 21 20 20 20 19 19 20 20 20 20 20 20 19 19 19 19 19 18 19 19 19 20 20 20 19 19 20 20 20 20 20 21 22 22
22 22 23 23 22 22 22 22 22 22 21 21 21 21 21 20 21 21 21 21 20 20 20 20 20 20 20 20 20 21 21 20 20 20 20 20 20 21 21 21 21 22 22
24 24 24 24 24 24 24 24 23 22 22 22 22 22 21 21 21 21 21 21 21 21 21 21 21 21 21 21 21 22 22 21 21 21 21 22 22 22 23 23 23 23 23
25 26 26 25 25 25 25 25 24 24 23 23 23 23 23 22 22 22 21 22 22 22 22 22 22 22 22 23 23 24 23 23 23 23 23 23 24 25 25 25 24 24 25
26 27 27 27 26 26 26 25 25 25 25 25 25 24 24 24 23 23 23 23 23 23 24 23 24 24 24 25 25 25 25 25 25 25 25 25 26 26 26 27 27 26 26
27 28 28 28 28 28 27 27 26 27 26 26 26 26 26 26 25 25 25 25 25 25 26 26 26 26 27 27 28 28 27 27 27 27 27 27 27 28 28 28 28 28 27
28 28 29 29 29 29 30 30 29 29 29 28 27 27 28 27 27 27 27 27 27 27 27 28 28 29 29 29 29 29 29 29 29 29 29 29 29 29 29 29 29 29 28
30 30 30 30 30 31 31 32 31 31 31 31 30 30 29 29 29 29 29 29 29 29 29 29 29 30 30 30 30 30 30 30 30 30 31 30 30 30 30 30 30 30 30
32 32 32 31 31 31 31 32 32 32 32 32 32 32 32 32 32 31 31 31 31 31 31 31 31 32 31 31 31 31 31 32 32 31 31 31 31 32 32 32 31 31 31